Regional Weather Roundup
Issued by NWS

Home | Current Version | Previous Version | Text Only | Print | Product List | Glossary Off
Versions: 1 2 3 4 5 6 7 8 9 10 11 12 13 14 15 16 17 18 19 20 21 22 23 24 25 26 27 28 29 30 31 32 33 34 35 36 37 38 39 40 41 42 43 44 45 46 47 48 49 50

000
ASUS45 KSLC 302210
RWRUT

UTAH REGIONAL WEATHER ROUNDUP
NATIONAL WEATHER SERVICE SALT LAKE CITY UT
400 PM MDT TUE JUN 30 2015

UTZ001>011-023>025-302300-

NORTHERN UTAH

CITY           SKY/WX    TMP DP  RH WIND       PRES   REMARKS
BRIGHAM CITY   SUNNY     98  40  13 S5        30.01F HX  93
HILL AFB       SUNNY     96  48  19 VRB7      30.06F HX  93
LOGAN          SUNNY     96  46  18 CALM      30.01F HX  92
OGDEN          SUNNY     98  46  17 MISG      30.02F HX  94
PROVO AIRPORT  MOSUNNY   93  57  29 NW9       30.01F HX  92
SALT LAKE CITY MOSUNNY   99  54  22 N8        29.99F HX  97
VERNAL         CLOUDY    82  46  28 N18G24    30.17R
WENDOVER       PTSUNNY  100  46  16 SE9       29.99F HX  96
HEBER CITY     MOSUNNY   97  41  14 N3        30.10F HX  92
WEST JORDAN    SUNNY     99  48  18 NW13      30.04F HX  95

$$

UTZ012>022-026-027-302300-

SOUTHERN/CENTRAL UTAH

CITY           SKY/WX    TMP DP  RH WIND       PRES   REMARKS
BLANDING       SUNNY     94  44  18 SW7G17    30.19F HX  90
BRYCE CANYON   TSTM      68  49  50 N14G38    30.35R
CEDAR CITY     CLOUDY    86  46  24 SE7       30.13F
DELTA          SUNNY    100  37  11 W9        30.02F HX  95
HANKSVILLE     SUNNY    104  37  10 NW6       29.97F HX  98
MILFORD        MOSUNNY  100  42  13 E6        30.02F HX  95
MOAB/CYNLANDS  SUNNY    104  39  10 MISG      29.95F HX  98
PRICE          PTSUNNY   91  42  18 SE15      30.12F
ST GEORGE      PTCLDY   108  50  14 W8G17     29.87F HX 104
KANAB          PTSUNNY   99  46  16 W16       30.09F HX  95

$$

REGIONAL REPORTS     COLORADO/ARIZONA

CITY           SKY/WX    TMP DP  RH WIND       PRES   REMARKS
CRAIG, CO      LGT RAIN  86  39  19 W24G33    30.16R
GRAND JUNCTION SUNNY     99  39  12 W7        30.00F HX  94
RIFLE          MOSUNNY   97  41  14 NW6       30.05F HX  92
MONTROSE       SUNNY     96  42  15 W12       30.10F HX  92
CORTEZ         SUNNY     93  44  18 SW7       30.12F
PAGE, AZ       MOSUNNY  103  40  11 N6        29.97F HX  98
GRAND CANYON   MOSUNNY   87  50  27 SW6       30.22F
KINGMAN        SUNNY    102  52  18 SW14G23   29.98F HX  99
FLAGSTAFF      MOSUNNY   82  50  32 NW6       30.24F

$$

REGIONAL REPORTS    NEVADA/IDAHO/WYOMING

CITY           SKY/WX    TMP DP  RH WIND       PRES   REMARKS
LAS VEGAS, NV  MOSUNNY  111  46  11 S9        29.77F HX 106
ELY            LGT RAIN  83  50  31 MISG      30.21S
ELKO           MOSUNNY   98  42  14 VRB3      30.06F HX  94
POCATELLO, ID  SUNNY     94  52  24 VRB3      30.05F HX  91
BURLEY         MOSUNNY   94  51  23 W8        30.02F HX  91
EVANSTON, WY   MOSUNNY   89  41  18 NW20G29   30.25S
ROCK SPRINGS   MOSUNNY   86  49  27 SW7       30.17F
KEMMERER       MOSUNNY   88  39  18 W16G28    30.26S

$$



USA.gov is the U.S. government's official web portal to all federal, state and local government web resources and services.